Southport, FL

9:12 AM CDT on September 27, 2016 (GMT -0500)
Northwest Florida Beaches International

Weather History for KECP - June, 2013

Change the Weather History Date:

Friday, June 14, 2013

  Actual Average Record
Temperature  
Mean Temperature 85 °F -  
Max Temperature 94 °F - 98 °F (2011)
Min Temperature 76 °F - 68 °F (2014)
Degree Days  
Heating Degree Days 0    
Cooling Degree Days 20    
Growing Degree Days 36 (Base 50)    
Moisture  
Dew Point 74 °F    
Average Humidity 69    
Maximum Humidity 94    
Minimum Humidity 44    
Precipitation  
Precipitation 0.00 in - 0.50 in (2012)
Month to date precipitation  
Year to date precipitation  
Sea Level Pressure  
Sea Level Pressure 29.90 in    
Wind  
Wind Speed 6 mph (WNW)    
Max Wind Speed 14 mph    
Max Gust Speed 31 mph    
Visibility 9 miles    
Events      
T = Trace of Precipitation, MM = Missing Value Source: NWS Daily Summary

Daily Weather History Graph

Daily Weather History Graph

Search for Another Location

Airport or City:

Trip Planner

Search our weather history database for the weather conditions in past years. The results will help you decide how hot, cold, wet, or windy it might be!

Date:

Astronomy

Jun. 14, 2013 Rise Set
Actual Time 6:40 AM EDT 8:46 PM EDT
Civil Twilight 6:13 AM EDT 9:13 PM EDT
Nautical Twilight 5:39 AM EDT 9:47 PM EDT
Astronomical Twilight 5:03 AM EDT 10:23 PM EDT
Moon 11:55 AM EDT (6/14) 12:10 AM EDT (6/14)
Length of Visible Light 15h 00m
Length of Day
14h 05m
Waxing Crescent, 30% of the Moon is Illuminated
Jun 14
Waxing Crescent
Jun 16
First Quarter
Jun 23
Full
Jun 30
Last Quarter
Jul 8
New

Hourly Weather History & Observations

Time (EDT) Temp. Heat Index Dew Point Humidity Pressure Visibility Wind Dir Wind Speed Gust Speed Precip Events Conditions
12:53 AM 80.1 °F 85.4 °F 75.9 °F 87% 29.93 in 9.0 mi SSW 4.6 mph - N/A   Clear
1:53 AM 80.1 °F 85.4 °F 75.9 °F 87% 29.92 in 9.0 mi SW 4.6 mph - N/A   Clear
2:53 AM 80.1 °F 85.4 °F 75.9 °F 87% 29.93 in 10.0 mi WSW 6.9 mph - N/A   Clear
3:53 AM 81.0 °F 87.3 °F 75.9 °F 85% 29.87 in 9.0 mi SSW 8.1 mph - N/A   Scattered Clouds
4:53 AM 81.0 °F 87.9 °F 77.0 °F 88% 29.88 in 10.0 mi WSW 4.6 mph - N/A   Clear
5:53 AM 81.0 °F 87.9 °F 77.0 °F 88% 29.85 in 9.0 mi SW 9.2 mph - N/A   Clear
6:53 AM 81.0 °F 88.6 °F 78.1 °F 91% 29.88 in 8.0 mi WSW 5.8 mph - N/A   Partly Cloudy
7:53 AM 82.0 °F 91.0 °F 78.1 °F 88% 29.88 in 8.0 mi West 8.1 mph - N/A   Clear
8:53 AM 84.9 °F 95.3 °F 77.0 °F 77% 29.90 in 10.0 mi West 8.1 mph - N/A   Clear
9:53 AM 86.0 °F 93.8 °F 73.9 °F 67% 29.90 in 10.0 mi West 10.4 mph - N/A   Partly Cloudy
10:53 AM 87.1 °F 96.3 °F 75.0 °F 67% 29.91 in 10.0 mi NW 9.2 mph - N/A   Mostly Cloudy
11:53 AM 86.0 °F 95.1 °F 75.0 °F 70% 29.91 in 10.0 mi NW 10.4 mph - N/A   Overcast
12:53 PM 88.0 °F 96.5 °F 73.9 °F 63% 29.91 in 10.0 mi North 12.7 mph - N/A   Mostly Cloudy
1:53 PM 89.1 °F 96.0 °F 72.0 °F 57% 29.91 in 10.0 mi NW 8.1 mph - N/A   Scattered Clouds
2:53 PM 90.0 °F 97.9 °F 73.0 °F 57% 29.89 in 10.0 mi NNW 6.9 mph - N/A   Mostly Cloudy
3:53 PM 91.9 °F 96.9 °F 69.1 °F 47% 29.89 in 10.0 mi NW 10.4 mph - N/A   Partly Cloudy
4:53 PM 93.9 °F 98.6 °F 68.0 °F 43% 29.88 in 10.0 mi WNW 9.2 mph - N/A   Scattered Clouds
5:53 PM 93.0 °F 97.9 °F 69.1 °F 45% 29.87 in 10.0 mi NNW 4.6 mph - N/A   Scattered Clouds
6:53 PM 88.0 °F 94.7 °F 72.0 °F 59% 29.87 in 10.0 mi NNW 4.6 mph - N/A   Scattered Clouds
7:53 PM 89.1 °F 95.0 °F 71.1 °F 55% 29.88 in 10.0 mi North 3.5 mph - N/A   Scattered Clouds
8:53 PM 82.9 °F 90.8 °F 75.9 °F 79% 29.89 in 8.0 mi SSW 5.8 mph - N/A   Clear
9:53 PM 82.0 °F 89.4 °F 75.9 °F 82% 29.92 in 9.0 mi Calm Calm - N/A   Clear
10:53 PM 81.0 °F 87.3 °F 75.9 °F 85% 29.95 in 8.0 mi Calm Calm - N/A   Overcast
11:53 PM 78.1 °F - 73.9 °F 87% 29.96 in 9.0 mi North 3.5 mph - N/A   Scattered Clouds